Location: Unspecified
(0.0000°N, 0.0000°E)
Time: 02:13:47
(UTC+02:00)

PROBA 2 - Visible Passes

Search period start: 18 April 2014 00:00
Search period end: 28 April 2014 00:00
Orbit: 709 x 726 km, 98.3° (Epoch: 17 April)

Date Brightness Start Highest point End Pass type
(mag) Time Alt. Az. Time Alt. Az. Time Alt. Az.
18 Apr ? 07:21:17 10° ESE 07:24:08 16° ENE 07:26:58 10° NE visible
18 Apr ? 21:23:12 10° NW 21:25:28 13° WNW 21:27:44 10° WSW visible
19 Apr ? 20:30:10 10° N 20:34:55 61° WNW 20:39:41 10° SSW visible
20 Apr ? 07:18:15 10° ESE 07:20:46 14° ENE 07:23:16 10° NE visible
20 Apr ? 21:19:27 10° NW 21:22:06 15° WNW 21:24:45 10° WSW visible
21 Apr ? 20:26:45 10° N 20:31:33 68° WNW 20:36:20 10° SSW visible
22 Apr ? 07:15:18 10° ESE 07:17:23 13° ENE 07:19:28 10° NE visible
22 Apr ? 21:15:46 10° NW 21:18:44 16° WNW 21:21:42 10° WSW visible
23 Apr ? 20:23:22 10° N 20:28:10 75° WNW 20:32:59 10° SSW visible
24 Apr ? 07:12:30 10° E 07:14:01 11° ENE 07:15:32 10° ENE visible
24 Apr ? 21:12:07 10° NW 21:15:21 18° WNW 21:18:36 10° WSW visible
25 Apr ? 20:19:58 10° N 20:24:48 83° WNW 20:29:37 10° SSW visible
26 Apr ? 07:10:17 10° E 07:10:39 10° ENE 07:11:00 10° ENE visible
26 Apr ? 21:08:30 10° NNW 21:11:59 20° WNW 21:15:27 10° SW visible
27 Apr ? 20:16:35 10° NNE 20:21:25 89° ESE 20:26:14 10° SSW visible
